Location: Godiavel Galaoual
(15.2485°N, 12.6604°W)
Time: 01:23:55
(UTC+00:00)

Explorer 7 - Pass Details

Date: 16 June 2021
Orbit: 484 x 676 km, 50.3° (Epoch: 29 July)

Event Time Altitude Azimuth Distance (km) Brightness Sun altitude
Rises 21:51:41 0° 252° (WSW) 2,995 11.0 -31.5°
Reaches altitude 10° 21:54:38 10° 269° (W) 2,095 10.3 -32.0°
Maximum altitude 21:58:04 19° 315° (NW) 1,582 9.8 -32.6°
Drops below altitude 10° 22:01:31 10° 360° (N) 2,097 10.2 -33.3°
Sets 22:04:29 0° 18° (NNE) 2,998 10.9 -33.8°
